(91060) = 1994 LG2 = 1998 FS51

Discovered at Socorro on 1998-03-20 by LINEAR.

Orbit

Orbit type: Main Belt

Note: WebGL enabled browser required.

epoch2023-09-13.0
epoch JD2460200.5
perihelion date2022-01-03.89442
perihelion JD2459583.39442
argument of perihelion (°)151.79387
ascending node (°)152.41287
inclination (°)6.55472
eccentricity0.0399042
perihelion distance (AU)2.6029061
Tisserand w.r.t. Jupiter3.4
ΔV w.r.t. Earth (km/sec)10.3
semimajor axis (AU)2.7110898
mean anomaly (°)136.25344
mean daily motion (°/day)0.22079440
aphelion distance (AU)2.819
period (years)4.46
P-vector [x]0.56361137
P-vector [y]-0.77772006
P-vector [z]-0.27837695
Q-vector [x]0.82434682
Q-vector [y]0.55112148
Q-vector [z]0.12929593
absolute magnitude15.55
phase slope0.15
uncertainty0
referenceMPEC 2024-B03
observations used1066
oppositions21
arc length (days)10813
first opposition used1994
last opposition used2024
residual rms (arc-secs)0.77
perturbers coarse indicatorM-v
perturbers precise indicator003Ek
first observation date used1994-06-08.0
last observation date used2024-01-15.0
computer nameMPCLINUX
JD of orbit computation2456612.510736
perihelion JD uncertainty (days)4.4594E-04
argument of perihelion uncertainty (°)1.0977E-04
ascending node uncertainty (°)4.9966E-05
inclination uncertainty (°)7.3351E-06
eccentricity uncertainty 5.6402E-08
perihelion distance uncertainty (AU)1.4656E-07
Minimum Orbit Intersection Distances (in AU)
for orbit epoch: 2460200.5, reference: E2024-B03
Mercury2.16186
Venus1.87933
Earth1.58958
Mars1.11761
Jupiter2.27648
Saturn6.26356
Uranus15.6517
Neptune27.1346

Observations

1093 total observations over interval: 1994 06 08.20756 – 2024 01 15.457496
These data are available for download (format description).

Date (UT) J2000 RA J2000 Dec Magn Location Ref
1994 06 08.20756 15 09 06.29 -07 18 23.6 19.5 V 691 – Steward Observatory, Kitt Peak-Spacewatch MPC 23728
1994 06 08.23421 15 09 05.34 -07 18 22.9   691 – Steward Observatory, Kitt Peak-Spacewatch MPC 23728
1994 06 08.26085 15 09 04.33 -07 18 21.9   691 – Steward Observatory, Kitt Peak-Spacewatch MPC 23728
1994 06 09.17603 15 08 32.83 -07 18 00.7   691 – Steward Observatory, Kitt Peak-Spacewatch MPC 23728
1994 06 09.19933 15 08 31.98 -07 18 00.6 19.3 V 691 – Steward Observatory, Kitt Peak-Spacewatch MPC 23728
1994 06 09.22297 15 08 31.13 -07 17 59.9   691 – Steward Observatory, Kitt Peak-Spacewatch MPC 23728
1998 03 02.23194 12 37 14.01 +00 42 31.9   809 – European Southern Observatory, La Silla MPS 8405
1998 03 02.27778 12 37 12.30 +00 42 52.1   809 – European Southern Observatory, La Silla MPS 8405
1998 03 20.22321 12 25 13.53 +02 51 01.8 19.4   704 – Lincoln Laboratory ETS, New Mexico MPS 767
1998 03 20.24336 12 25 12.44 +02 51 11.1 18.9   704 – Lincoln Laboratory ETS, New Mexico MPS 767
1998 03 20.26343 12 25 11.73 +02 51 19.2 18.9   704 – Lincoln Laboratory ETS, New Mexico MPS 767
1998 03 20.28364 12 25 10.72 +02 51 28.4 19.8   704 – Lincoln Laboratory ETS, New Mexico MPS 767
1998 03 22.23929 12 23 39.81 +03 05 59.5 19.4   704 – Lincoln Laboratory ETS, New Mexico MPS 767
1998 03 22.25987 12 23 38.86 +03 06 06.4 19.4   704 – Lincoln Laboratory ETS, New Mexico MPS 767
1998 03 22.28018 12 23 38.00 +03 06 17.8 19.9   704 – Lincoln Laboratory ETS, New Mexico MPS 767
1998 03 22.30029 12 23 37.06 +03 06 26.3 19.9   704 – Lincoln Laboratory ETS, New Mexico MPS 767
1998 03 24.24200 12 22 05.80 +03 20 42.2 18.7   704 – Lincoln Laboratory ETS, New Mexico MPS 5855
1998 03 24.25595 12 22 05.06 +03 20 49.0   704 – Lincoln Laboratory ETS, New Mexico MPS 5855
1998 03 24.26992 12 22 04.33 +03 20 55.8   704 – Lincoln Laboratory ETS, New Mexico MPS 5855
1998 03 24.28388 12 22 03.73 +03 21 00.4   704 – Lincoln Laboratory ETS, New Mexico MPS 5855
1998 04 20.94501 12 02 39.61 +06 04 28.1 19.2 V 046 – Klet Observatory, Ceske Budejovice MPS 954
1998 04 20.94726 12 02 39.52 +06 04 28.8   046 – Klet Observatory, Ceske Budejovice MPS 954
1998 04 20.94935 12 02 39.43 +06 04 29.2   046 – Klet Observatory, Ceske Budejovice MPS 954
1998 04 20.95137 12 02 39.42 +06 04 29.2   046 – Klet Observatory, Ceske Budejovice MPS 954
1998 04 20.95425 12 02 39.33 +06 04 30.2   046 – Klet Observatory, Ceske Budejovice MPS 954
1998 04 22.86105 12 01 42.64 +06 11 30.0 18.9 V 046 – Klet Observatory, Ceske Budejovice MPS 954
1998 04 22.86308 12 01 42.60 +06 11 30.5   046 – Klet Observatory, Ceske Budejovice MPS 954
1998 04 22.86688 12 01 42.40 +06 11 31.6   046 – Klet Observatory, Ceske Budejovice MPS 954
1998 04 22.86883 12 01 42.41 +06 11 31.8   046 – Klet Observatory, Ceske Budejovice MPS 954
1998 04 23.84742 12 01 14.95 +06 14 51.9   046 – Klet Observatory, Ceske Budejovice MPS 954
1998 04 23.84975 12 01 14.91 +06 14 52.2   046 – Klet Observatory, Ceske Budejovice MPS 954
1998 04 23.85175 12 01 14.90 +06 14 53.2 18.8 V 046 – Klet Observatory, Ceske Budejovice MPS 954
1998 04 23.85377 12 01 14.82 +06 14 53.7   046 – Klet Observatory, Ceske Budejovice MPS 954
2000 11 03.24658 02 55 27.67 +06 39 40.5 19.7   704 – Lincoln Laboratory ETS, New Mexico MPS 20708
2000 11 03.26134 02 55 26.93 +06 39 36.6 19.6   704 – Lincoln Laboratory ETS, New Mexico MPS 20708
2000 11 03.27599 02 55 26.04 +06 39 32.3 19.8   704 – Lincoln Laboratory ETS, New Mexico MPS 20708
2000 11 03.29008 02 55 25.38 +06 39 27.1 19.5   704 – Lincoln Laboratory ETS, New Mexico MPS 20708
2000 11 05.30975 02 53 40.25 +06 29 55.2 18.8   704 – Lincoln Laboratory ETS, New Mexico MPS 20708
2000 11 05.32348 02 53 39.49 +06 29 51.9 18.8   704 – Lincoln Laboratory ETS, New Mexico MPS 20708
2000 11 05.33722 02 53 38.66 +06 29 47.6 19.2   704 – Lincoln Laboratory ETS, New Mexico MPS 20708
2000 11 05.33939 02 53 38.70 +06 29 46.7 19.0   704 – Lincoln Laboratory ETS, New Mexico MPS 20708
2000 11 05.35103 02 53 37.92 +06 29 44.0 19.2   704 – Lincoln Laboratory ETS, New Mexico MPS 20708
2000 11 05.35473 02 53 37.79 +06 29 42.1 18.9   704 – Lincoln Laboratory ETS, New Mexico MPS 20708
2000 11 05.36756 02 53 37.05 +06 29 38.4 18.8   704 – Lincoln Laboratory ETS, New Mexico MPS 20708
2000 11 05.37043 02 53 36.92 +06 29 38.0 18.9   704 – Lincoln Laboratory ETS, New Mexico MPS 20708
2000 11 19.25534 02 41 57.24 +05 36 08.7   699 – Lowell Observatory-LONEOS MPS 24823
2000 11 19.27876 02 41 56.06 +05 36 03.1   699 – Lowell Observatory-LONEOS MPS 24823
2000 11 19.30222 02 41 55.00 +05 35 59.8   699 – Lowell Observatory-LONEOS MPS 24823
2000 11 26.24347 02 36 51.42 +05 19 14.0 18.7   704 – Lincoln Laboratory ETS, New Mexico MPS 22137
2000 11 26.25824 02 36 50.72 +05 19 10.9 19.8   704 – Lincoln Laboratory ETS, New Mexico MPS 22137
2000 11 26.27304 02 36 50.16 +05 19 10.4 19.1   704 – Lincoln Laboratory ETS, New Mexico MPS 22137
2000 11 26.28800 02 36 49.56 +05 19 08.3 20.1   704 – Lincoln Laboratory ETS, New Mexico MPS 22137
2000 11 26.30282 02 36 48.90 +05 19 06.4 19.6   704 – Lincoln Laboratory ETS, New Mexico MPS 22137
2002 01 13.39826 09 42 50.32 +10 28 35.8 19.9   704 – Lincoln Laboratory ETS, New Mexico MPS 48501
2002 01 13.42865 09 42 49.29 +10 28 42.0 19.9   704 – Lincoln Laboratory ETS, New Mexico MPS 48501
2002 01 13.44386 09 42 48.80 +10 28 46.6 19.5   704 – Lincoln Laboratory ETS, New Mexico MPS 48501
2002 01 19.40199 09 39 09.90 +10 55 49.6 19.3   704 – Lincoln Laboratory ETS, New Mexico MPS 48501
2002 01 19.41715 09 39 09.28 +10 55 53.3 19.9   704 – Lincoln Laboratory ETS, New Mexico MPS 48501
2002 01 19.43229 09 39 08.71 +10 55 57.8 19.7   704 – Lincoln Laboratory ETS, New Mexico MPS 48501
2002 01 19.44746 09 39 07.97 +10 56 02.3 19.3   704 – Lincoln Laboratory ETS, New Mexico MPS 48501
2002 01 22.30178 09 37 09.36 +11 10 33.7 19.1   704 – Lincoln Laboratory ETS, New Mexico MPS 48501
2002 01 22.31683 09 37 08.63 +11 10 37.9 20.0   704 – Lincoln Laboratory ETS, New Mexico MPS 48501
2002 01 22.33177 09 37 08.02 +11 10 42.7 19.3   704 – Lincoln Laboratory ETS, New Mexico MPS 48501
2002 01 22.34673 09 37 07.36 +11 10 48.0 19.4   704 – Lincoln Laboratory ETS, New Mexico MPS 48501
2002 01 22.36170 09 37 06.70 +11 10 52.0 19.8   704 – Lincoln Laboratory ETS, New Mexico MPS 48501
2002 02 07.31186 09 24 10.18 +12 44 46.3 18.8   704 – Lincoln Laboratory ETS, New Mexico MPS 48501
2002 02 07.32786 09 24 09.38 +12 44 51.0 19.3   704 – Lincoln Laboratory ETS, New Mexico MPS 48501
2002 02 07.34242 09 24 08.57 +12 44 58.1 19.7   704 – Lincoln Laboratory ETS, New Mexico MPS 48501
2002 02 07.35698 09 24 07.83 +12 45 02.9 19.2   704 – Lincoln Laboratory ETS, New Mexico MPS 48501
2002 02 07.37276 09 24 06.95 +12 45 08.8 19.1   704 – Lincoln Laboratory ETS, New Mexico MPS 48501
2002 02 08.50909 09 23 07.90 +12 52 18.4 20.5   608 – Haleakala-AMOS MPS 51391
2002 02 08.52008 09 23 07.27 +12 52 22.7 19.9   608 – Haleakala-AMOS MPS 51391
2002 02 08.53056 09 23 06.65 +12 52 26.4 20.3   608 – Haleakala-AMOS MPS 51391
2002 02 11.24064 09 20 46.32 +13 09 32.0 19.9   704 – Lincoln Laboratory ETS, New Mexico MPS 51391
2002 02 11.25476 09 20 45.54 +13 09 36.6 19.6   704 – Lincoln Laboratory ETS, New Mexico MPS 51391
2002 02 11.26888 09 20 44.73 +13 09 43.0 19.5   704 – Lincoln Laboratory ETS, New Mexico MPS 51391
2002 02 11.28300 09 20 44.00 +13 09 47.7 19.4   704 – Lincoln Laboratory ETS, New Mexico MPS 51391
2002 02 11.29713 09 20 43.25 +13 09 52.9 19.6   704 – Lincoln Laboratory ETS, New Mexico MPS 51391
2002 02 20.23790 09 13 14.16 +14 05 22.6 18.9   704 – Lincoln Laboratory ETS, New Mexico MPS 51391
2002 02 20.25186 09 13 13.61 +14 05 27.1 19.6   704 – Lincoln Laboratory ETS, New Mexico MPS 51391
2002 02 20.26594 09 13 12.90 +14 05 32.2 19.5   704 – Lincoln Laboratory ETS, New Mexico MPS 51391
2002 02 20.28001 09 13 12.21 +14 05 37.1 19.6   704 – Lincoln Laboratory ETS, New Mexico MPS 51391
2002 02 20.29393 09 13 11.68 +14 05 41.1 19.6   704 – Lincoln Laboratory ETS, New Mexico MPS 51391
2002 03 13.13059 09 00 16.83 +15 52 57.1 19.1   704 – Lincoln Laboratory ETS, New Mexico MPS 51391
